Temperature
18 17 17 17 17 17 17 17 17 17 17 17 17 17 17 17 17 17 16 16 16 16 16 16 16 16 16 16 16 16 16 16 16 16 16 16 16 16 16 16 16 16 16
18 17 17 17 17 17 17 17 17 16 17 17 17 17 17 17 16 16 16 16 16 16 16 16 16 16 16 16 16 16 16 16 16 16 16 16 16 16 16 16 16 16 16
17 17 17 17 17 17 17 17 16 16 16 17 17 16 17 17 16 16 16 16 16 16 16 16 16 16 16 16 16 16 16 15 15 15 15 16 16 16 16 16 16 16 15
17 17 17 17 17 17 17 17 17 16 16 16 16 16 16 16 16 16 16 16 16 16 16 16 16 15 15 15 15 15 15 15 15 15 15 15 15 15 15 15 15 15 15
17 17 17 17 17 17 16 16 16 16 16 16 16 16 16 16 16 16 16 16 16 16 15 15 15 15 15 15 15 15 15 15 15 15 15 15 15 15 14 14 14 14 14
17 17 17 17 17 16 16 16 16 16 16 16 16 16 16 16 16 16 16 16 15 15 15 15 15 15 15 15 15 15 14 14 14 14 14 14 14 14 14 14 13 13 14
17 17 17 17 16 16 16 16 16 16 16 16 16 16 16 16 16 15 15 15 15 15 15 15 15 14 14 14 14 14 14 14 14 14 13 13 13 13 13 13 13 13 13
17 17 17 16 16 16 16 16 16 15 15 15 15 15 15 15 15 15 15 15 15 15 15 15 14 14 14 14 14 14 13 13 13 13 13 13 13 12 12 12 12 12 12
17 17 16 16 16 16 16 16 15 15 15 15 15 15 15 14 14 14 14 14 14 14 14 14 14 14 14 13 13 13 13 13 13 12 12 12 12 12 12 12 12 11 11
17 16 16 16 16 16 16 15 15 15 15 14 14 14 14 14 14 14 14 14 14 14 14 13 13 13 13 13 13 13 12 12 12 12 12 12 12 11 11 11 11 11 10
16 16 16 16 15 15 15 15 15 15 14 14 14 14 14 14 14 14 14 14 13 13 13 13 12 12 12 12 12 12 12 12 11 11 11 11 11 11 11 10 10 10 10
16 15 15 15 15 15 14 14 14 14 14 14 13 13 13 13 13 13 13 13 13 12 12 12 12 12 11 11 11 11 11 11 11 11 10 10 10 10 10 10 9 9 9
15 15 14 14 14 14 14 14 14 14 13 13 13 13 13 12 12 12 12 12 12 12 11 11 11 11 11 11 11 10 10 10 10 10 10 9 9 9 9 9 9 9 9
14 14 14 14 13 13 13 13 13 13 13 13 12 12 12 12 12 12 11 11 11 11 11 10 10 10 10 10 10 10 9 9 9 9 9 8 8 8 8 8 8 8 8
14 13 13 13 13 13 13 12 12 12 12 12 12 12 11 11 11 11 11 11 10 10 10 10 10 9 9 9 9 9 8 8 8 8 8 8 8 7 7 7 7 7 7
13 13 13 12 12 12 12 11 11 11 11 11 11 11 10 10 10 10 10 10 10 9 9 9 9 9 8 8 8 8 8 8 7 7 7 7 7 7 7 7 6 6 6
12 12 12 12 12 11 11 11 11 10 10 10 10 10 10 9 9 9 9 9 9 9 9 8 8 8 7 7 7 7 7 7 7 6 6 6 6 6 6 6 6 6 6
12 11 11 11 11 11 11 10 10 10 10 9 9 9 9 9 9 9 8 8 8 8 8 7 7 7 7 7 6 6 6 6 6 6 6 5 5 5 5 5 5 5 5
11 11 11 11 10 10 10 10 9 9 9 9 8 8 8 8 8 8 8 8 7 7 7 7 6 6 6 6 5 5 5 5 5 5 5 5 4 4 4 4 4 4 4
11 10 10 10 10 10 9 9 9 9 8 8 8 8 7 7 7 7 7 7 6 6 6 6 5 5 5 5 5 4 4 4 4 4 4 4 4 4 4 4 3 3 3
10 10 10 10 9 9 9 9 8 8 8 7 7 7 7 7 6 6 6 6 5 5 5 5 5 4 4 4 4 4 4 4 4 4 4 3 3 3 3 3 3 3 3
9 9 9 9 9 8 8 8 7 7 7 7 6 6 6 6 5 5 5 5 5 4 4 4 4 4 4 3 3 3 3 3 3 3 3 3 3 3 3 3 3 3 3
9 9 8 8 8 8 7 7 7 6 6 6 6 5 5 5 5 4 4 4 4 4 3 3 3 3 3 3 3 3 3 3 3 3 3 3 3 3 3 3 3 3 2
8 8 8 7 7 7 6 6 6 5 5 5 5 4 4 4 4 4 3 3 3 3 3 3 3 2 2 2 2 2 2 2 2 2 2 2 2 2 2 2 2 2 2
7 7 7 6 6 6 6 5 5 5 5 4 4 4 4 3 3 3 3 3 2 2 2 2 2 2 2 2 2 2 2 2 2 2 2 2 2 2 2 2 2 2 2
6 6 6 6 5 5 5 5 4 4 4 3 3 3 3 3 3 2 2 2 2 2 2 2 2 2 2 2 2 2 2 2 2 2 2 2 2 2 2 2 2 2 2
Wind_Speed
6 6 6 6 7 6 6 7 7 7 8 8 8 8 8 8 7 6 6 7 7 6 6 6 6 5 4 4 4 4 4 4 5 3 2 2 2 3 3 5 7 8 9
5 5 6 6 6 7 6 6 7 7 7 8 7 7 8 7 7 8 8 7 7 7 7 6 6 5 5 4 4 4 4 5 4 4 2 2 3 3 3 3 4 6 7
4 5 4 5 6 6 6 6 7 7 7 7 7 7 7 7 8 8 8 7 7 7 7 7 6 6 5 4 5 5 4 4 4 3 3 2 2 1 2 2 3 3 6
4 4 4 5 5 6 5 5 6 6 7 6 6 6 6 6 6 7 7 6 6 6 6 6 6 6 6 6 5 5 4 4 4 3 3 3 3 2 1 2 3 3 4
4 4 4 4 4 5 5 5 5 6 6 6 6 5 5 5 5 6 6 6 6 5 4 5 5 6 6 5 4 5 5 4 3 3 3 2 2 2 2 2 4 4 4
4 4 3 4 5 5 5 5 5 5 5 5 5 5 4 3 5 7 6 5 5 5 4 3 3 4 5 6 6 5 5 5 4 3 3 4 4 4 3 3 3 4 5
4 3 4 4 5 5 6 6 6 5 5 4 4 4 3 2 3 5 6 4 4 4 3 3 2 2 3 2 2 3 3 4 5 4 4 5 5 4 3 4 4 5 6
4 3 4 5 6 6 6 6 5 5 5 4 4 4 3 2 3 3 4 3 3 3 3 3 3 1 1 2 2 1 1 1 2 3 4 4 4 3 3 4 4 5 5
5 4 4 5 6 6 6 6 5 5 5 4 4 4 3 2 2 2 3 2 2 2 2 2 2 2 2 2 2 1 0 1 1 1 0 1 2 3 1 1 2 3 4
4 5 5 5 6 6 6 6 5 5 5 5 4 4 4 3 4 2 3 3 3 3 3 3 4 3 3 3 2 1 0 1 2 2 3 3 3 4 3 1 2 3 3
4 5 5 5 6 6 6 5 5 6 6 6 5 5 5 5 5 5 5 3 3 3 3 3 3 5 5 5 4 2 1 1 1 2 2 3 3 3 3 3 2 2 3
6 7 6 6 5 6 6 6 5 6 7 6 6 5 5 5 6 6 8 7 5 5 4 3 3 6 7 7 5 5 4 3 2 3 3 3 4 4 4 4 4 4 5
9 8 8 8 7 6 6 6 5 5 5 5 5 5 4 5 6 10 10 10 9 6 5 7 8 9 8 7 8 7 5 4 3 3 3 3 3 4 4 4 5 5 6
9 8 8 9 8 8 7 6 6 5 5 5 5 5 5 5 5 5 5 6 8 7 6 8 10 11 8 7 6 6 5 4 3 2 3 3 4 4 4 4 4 5 5
10 9 9 9 9 10 10 9 8 6 5 6 6 5 5 5 5 7 6 6 5 5 5 5 6 6 6 6 5 5 5 4 4 3 3 4 4 5 5 4 4 4 4
10 9 8 8 8 9 10 12 17 14 16 16 12 9 8 8 10 12 12 12 11 9 7 6 6 5 5 5 5 5 5 5 4 4 4 4 4 5 5 5 4 5 6
10 9 8 8 8 8 8 9 10 12 17 18 16 14 12 12 13 13 13 13 12 10 8 6 5 5 4 4 4 4 4 5 4 4 5 5 5 5 5 6 6 6 7
10 11 9 8 8 8 8 8 8 8 8 9 11 15 14 14 14 13 11 10 9 8 6 5 5 5 4 4 5 5 5 5 5 5 5 5 5 6 6 7 7 7 8
9 8 8 8 8 8 8 9 9 9 9 7 7 8 11 11 13 13 10 8 7 6 5 5 5 5 5 5 4 4 5 5 5 5 5 6 6 6 6 7 7 9 8
9 12 10 8 8 8 8 8 8 8 8 7 6 5 4 6 7 8 7 7 6 6 5 5 5 5 5 5 5 5 5 6 6 6 6 6 6 6 7 8 8 8 8
8 9 12 9 8 7 7 7 7 7 7 6 6 6 7 6 6 6 6 6 6 5 5 5 5 5 5 5 5 6 7 6 6 6 7 7 7 7 7 7 8 8 9
7 7 7 8 7 7 7 7 7 7 7 7 5 6 8 6 6 6 5 5 5 5 5 4 4 5 5 5 5 6 6 7 7 7 7 7 7 7 8 8 8 8 9
8 8 8 8 7 8 8 7 7 7 6 6 5 5 6 6 5 5 5 5 5 5 6 6 5 6 7 7 7 6 6 7 8 8 8 8 8 7 8 8 9 10 9
8 9 8 8 8 7 7 7 6 6 6 6 6 5 5 5 5 5 5 5 5 6 7 7 7 7 9 9 8 8 8 10 11 9 9 8 8 8 7 8 9 10 9
8 8 8 7 7 7 7 6 6 6 6 5 5 5 5 5 5 5 5 5 6 6 7 8 8 8 10 11 11 12 14 15 12 11 9 7 8 8 8 8 8 9 9
8 8 7 6 6 6 6 6 6 5 5 4 4 4 4 4 4 4 4 5 5 5 6 7 9 10 11 11 13 16 17 16 16 14 10 7 7 7 8 7 9 8 9
Wind_Direction
182 186 181 182 180 178 186 190 187 184 180 181 184 182 182 181 178 179 186 189 193 200 202 199 208 201 197 198 194 191 194 189 219 254 249 266 261 256 258 243 244 244 250
177 177 180 177 172 177 186 188 184 184 184 184 181 180 183 181 178 183 193 195 198 205 208 202 211 203 202 199 193 199 202 200 205 234 248 255 252 258 260 262 261 256 255
164 168 170 174 177 182 184 183 182 182 180 179 175 181 184 183 186 193 196 197 201 207 205 204 209 198 208 207 200 205 208 203 203 216 241 245 263 280 274 273 274 270 270
161 166 174 179 178 176 175 176 177 175 173 173 174 180 181 182 189 196 195 194 196 203 201 204 209 204 209 208 207 209 204 201 201 214 235 246 254 265 256 267 279 268 273
153 164 180 175 162 157 159 162 160 158 163 161 163 172 175 179 193 193 191 189 189 196 197 204 211 207 207 205 205 203 196 203 207 218 234 245 252 251 253 252 266 281 275
145 157 154 153 150 148 148 145 144 139 136 145 159 167 169 186 187 181 177 178 180 185 192 201 206 210 218 216 211 197 187 197 213 218 231 241 255 255 259 258 263 278 282
142 145 137 134 132 136 137 127 126 127 127 133 138 138 138 138 147 159 166 169 175 178 183 188 198 206 204 201 205 208 214 215 207 212 234 247 257 256 255 261 256 258 265
141 142 138 134 133 126 122 121 117 111 113 114 115 121 118 100 122 152 176 173 166 167 173 177 182 191 169 169 166 169 226 247 235 222 236 255 266 270 256 263 270 273 272
143 143 141 135 131 128 130 127 121 118 114 109 103 106 104 72 68 141 159 150 136 118 104 96 110 116 72 112 138 155 55 354 24 35 356 335 338 331 291 278 293 287 289
144 139 135 136 135 136 132 121 114 114 115 109 95 88 92 75 51 83 142 127 118 107 92 80 71 78 74 85 114 129 145 324 348 359 7 9 6 8 11 298 269 279 289
118 114 114 120 124 122 117 115 116 114 107 100 90 74 67 58 50 60 91 109 120 113 98 75 57 61 67 68 78 84 77 4 12 11 9 8 6 5 2 352 304 259 267
103 100 97 94 104 110 109 105 106 110 106 101 91 74 57 49 47 56 69 80 96 102 94 78 67 64 69 66 68 64 58 55 51 36 23 9 358 349 340 333 321 297 269
93 93 92 86 81 87 98 103 99 99 103 100 96 84 64 56 53 55 63 69 78 86 82 76 73 72 71 65 58 58 60 58 53 39 11 350 338 332 334 334 333 329 312
92 90 92 90 83 74 71 76 83 85 96 97 96 90 77 63 53 51 59 68 70 75 74 68 67 65 63 56 50 46 45 44 40 20 348 335 338 341 344 343 335 336 325
87 85 84 85 86 80 70 59 67 58 81 97 94 93 89 75 52 61 74 70 69 76 77 63 53 47 44 39 36 34 32 29 22 2 350 341 338 338 334 336 330 327 317
90 85 84 87 89 90 90 77 59 67 67 70 77 87 76 82 82 75 72 69 67 73 76 64 54 47 41 32 24 16 14 10 1 351 345 338 332 329 326 326 323 318 314
90 89 88 89 91 92 94 96 88 68 62 61 63 71 78 76 71 70 70 69 61 63 69 62 53 42 33 26 19 10 1 354 351 351 347 341 333 326 322 322 324 322 317
85 86 88 86 87 87 87 88 90 91 80 62 53 60 67 69 64 61 64 69 58 52 57 54 43 32 24 17 12 6 358 355 355 350 343 337 332 326 323 321 320 318 315
83 86 85 85 85 87 89 90 88 86 85 80 70 56 53 63 61 53 55 63 64 54 46 40 31 22 16 11 7 2 355 349 346 341 338 334 331 327 322 319 317 316 313
76 85 88 88 87 87 88 90 90 88 85 78 69 58 47 55 56 48 49 52 53 46 37 31 24 19 14 9 2 356 350 345 343 341 336 332 328 323 317 316 315 314 311
80 81 83 84 84 88 91 91 91 91 89 82 69 54 58 66 62 56 52 47 43 37 30 27 22 15 10 5 359 353 347 341 339 335 332 328 324 319 315 312 311 309 308
84 82 81 84 85 85 87 89 92 92 89 85 75 61 56 61 57 52 46 39 36 33 28 25 20 13 8 4 357 350 344 339 337 333 327 321 316 313 312 311 311 311 310
88 89 85 83 85 86 86 86 87 88 86 82 76 68 61 58 52 46 40 34 31 27 23 21 15 11 8 3 358 352 342 336 328 323 319 316 315 314 313 312 312 313 312
87 90 90 87 86 86 87 85 83 83 82 79 74 68 61 56 53 45 37 33 29 26 21 17 14 8 2 358 353 350 344 334 326 317 311 306 308 308 309 310 310 310 310
87 89 89 90 91 91 90 86 83 80 78 74 69 64 59 54 49 41 33 28 25 22 17 13 7 3 359 356 353 348 343 340 337 330 318 308 305 306 310 311 312 313 315
87 89 89 90 91 93 94 91 85 81 77 72 66 61 57 51 42 35 27 21 15 11 8 6 3 0 357 354 350 348 347 346 344 340 330 316 312 315 321 315 316 318 321
Height
1484 1486 1488 1490 1493 1496 1499 1503 1506 1510 1513 1517 1521 1524 1527 1530 1533 1536 1538 1540 1542 1544 1546 1547 1549 1551 1552 1553 1554 1555 1555 1556 1556 1556 1557 1557 1558 1558 1558 1558 1558 1558 1558
1482 1484 1486 1488 1491 1493 1497 1500 1503 1506 1510 1514 1518 1521 1524 1527 1529 1532 1534 1536 1538 1540 1542 1543 1545 1547 1548 1549 1549 1550 1551 1552 1552 1552 1552 1553 1553 1554 1554 1554 1554 1553 1553
1481 1483 1485 1486 1488 1491 1494 1497 1500 1504 1507 1511 1514 1517 1520 1523 1526 1528 1530 1532 1534 1536 1538 1539 1541 1542 1543 1544 1545 1546 1547 1547 1547 1548 1548 1548 1549 1549 1549 1548 1548 1548 1548
1480 1482 1483 1485 1487 1489 1492 1495 1498 1501 1504 1508 1511 1514 1517 1520 1522 1525 1527 1529 1531 1532 1534 1535 1536 1538 1539 1540 1541 1542 1542 1543 1543 1543 1543 1543 1544 1543 1543 1543 1543 1542 1542
1480 1481 1482 1484 1486 1488 1490 1493 1496 1498 1502 1505 1508 1511 1514 1516 1519 1521 1523 1525 1527 1528 1529 1531 1532 1533 1535 1536 1537 1537 1538 1538 1538 1538 1538 1538 1538 1538 1538 1537 1537 1536 1535
1479 1480 1481 1483 1485 1487 1489 1492 1494 1497 1500 1503 1506 1509 1511 1513 1516 1518 1520 1521 1523 1525 1526 1527 1528 1529 1531 1532 1533 1533 1534 1534 1534 1534 1533 1533 1533 1533 1533 1532 1531 1530 1529
1479 1480 1482 1483 1484 1486 1489 1491 1494 1496 1499 1502 1505 1507 1509 1511 1513 1515 1516 1518 1520 1521 1522 1523 1524 1525 1527 1528 1528 1529 1529 1529 1529 1529 1529 1528 1528 1528 1527 1526 1525 1524 1523
1478 1480 1482 1483 1485 1487 1489 1492 1494 1497 1499 1502 1504 1505 1507 1509 1511 1512 1514 1516 1517 1518 1519 1520 1521 1522 1523 1523 1524 1525 1525 1525 1525 1524 1524 1524 1523 1523 1522 1521 1520 1519 1517
1477 1479 1482 1484 1486 1488 1490 1492 1494 1496 1499 1501 1503 1505 1506 1507 1509 1511 1512 1513 1514 1515 1516 1517 1518 1519 1519 1520 1521 1521 1521 1521 1521 1521 1520 1520 1519 1518 1517 1516 1515 1513 1511
1477 1479 1481 1484 1486 1488 1490 1492 1494 1496 1498 1500 1502 1504 1505 1506 1508 1509 1510 1511 1512 1513 1514 1514 1515 1516 1516 1517 1517 1518 1518 1518 1518 1517 1517 1516 1515 1513 1512 1511 1510 1509 1507
1477 1479 1481 1484 1486 1488 1490 1492 1495 1496 1497 1500 1501 1503 1505 1506 1507 1508 1508 1509 1510 1510 1511 1512 1513 1513 1514 1514 1515 1515 1515 1515 1515 1514 1513 1512 1511 1509 1508 1507 1506 1505 1503
1477 1479 1481 1484 1486 1488 1490 1492 1494 1496 1497 1499 1502 1503 1504 1505 1505 1506 1507 1507 1508 1509 1510 1511 1511 1512 1512 1512 1512 1512 1512 1512 1511 1511 1510 1508 1507 1506 1504 1503 1502 1501 1499
1477 1480 1482 1485 1487 1489 1491 1493 1495 1496 1498 1499 1501 1503 1504 1504 1505 1506 1506 1507 1508 1508 1509 1509 1510 1510 1510 1511 1511 1511 1510 1510 1509 1508 1507 1505 1504 1502 1501 1499 1498 1496 1495
1478 1481 1483 1485 1487 1489 1491 1493 1495 1497 1498 1500 1501 1503 1504 1504 1505 1506 1506 1507 1508 1508 1508 1509 1509 1509 1509 1509 1509 1509 1508 1507 1506 1506 1504 1503 1501 1499 1497 1495 1493 1491 1489
1481 1483 1485 1487 1489 1490 1493 1495 1497 1498 1500 1502 1503 1504 1504 1505 1506 1506 1507 1507 1508 1508 1508 1509 1508 1508 1508 1508 1508 1507 1506 1506 1504 1503 1501 1500 1498 1496 1494 1491 1489 1487 1484
1483 1485 1487 1489 1491 1493 1494 1496 1499 1501 1502 1503 1505 1506 1506 1507 1507 1508 1508 1508 1508 1509 1509 1508 1508 1508 1508 1507 1506 1506 1505 1504 1502 1500 1499 1497 1494 1492 1490 1487 1485 1483 1480
1486 1488 1490 1492 1494 1496 1497 1499 1501 1503 1505 1506 1507 1508 1508 1509 1509 1509 1509 1509 1509 1509 1509 1508 1508 1508 1507 1506 1505 1504 1503 1501 1500 1498 1495 1493 1491 1489 1486 1483 1481 1478 1476
1490 1492 1494 1496 1498 1499 1501 1503 1505 1506 1507 1508 1509 1510 1511 1511 1511 1511 1511 1511 1510 1510 1509 1509 1508 1507 1507 1505 1504 1502 1501 1499 1497 1495 1492 1490 1488 1485 1482 1479 1477 1474 1471
1495 1497 1498 1500 1502 1503 1505 1507 1508 1509 1510 1511 1512 1513 1514 1514 1513 1513 1512 1512 1511 1510 1509 1509 1508 1507 1505 1504 1502 1501 1499 1496 1494 1492 1489 1487 1484 1481 1478 1475 1473 1470 1467
1500 1502 1503 1504 1506 1507 1509 1510 1511 1512 1513 1514 1515 1515 1515 1515 1514 1513 1512 1512 1511 1510 1509 1508 1507 1506 1504 1503 1501 1499 1497 1494 1492 1489 1486 1483 1480 1478 1474 1471 1469 1466 1463
1505 1506 1507 1508 1510 1511 1512 1513 1514 1515 1515 1516 1516 1516 1516 1516 1515 1514 1513 1512 1511 1510 1509 1508 1507 1505 1503 1501 1499 1497 1494 1492 1489 1486 1482 1480 1477 1474 1471 1468 1465 1462 1459
1509 1510 1511 1512 1513 1514 1514 1515 1516 1517 1517 1517 1518 1517 1517 1516 1516 1515 1514 1513 1512 1510 1509 1507 1506 1504 1501 1499 1497 1494 1492 1489 1486 1482 1479 1476 1473 1470 1467 1464 1461 1458 1455
1512 1513 1514 1515 1516 1516 1517 1518 1518 1519 1519 1519 1518 1518 1518 1517 1516 1515 1514 1513 1512 1510 1509 1507 1505 1502 1500 1497 1495 1492 1489 1486 1483 1479 1476 1473 1470 1467 1464 1461 1458 1454 1451
1515 1516 1516 1517 1518 1518 1519 1520 1520 1520 1520 1519 1519 1519 1518 1517 1516 1515 1514 1513 1511 1510 1508 1506 1504 1501 1499 1496 1493 1491 1488 1484 1481 1478 1474 1471 1467 1464 1461 1458 1455 1452 1449
1517 1518 1518 1519 1520 1520 1521 1521 1521 1521 1521 1520 1520 1519 1519 1518 1517 1516 1514 1513 1511 1509 1507 1505 1503 1500 1498 1495 1492 1489 1487 1483 1480 1476 1472 1469 1466 1462 1459 1456 1453 1450 1447
1519 1520 1520 1521 1521 1522 1522 1522 1522 1522 1521 1521 1521 1520 1519 1518 1517 1516 1514 1513 1511 1509 1507 1505 1502 1499 1497 1494 1491 1489 1486 1482 1479 1475 1471 1468 1464 1461 1457 1454 1451 1449 1446